Hourly Data Report for February 28, 2017

All times are specified in Local Standard Time (LST). Add 1 hour to adjust for Daylight Saving Time where and when it is observed.

TORONTO CITY
ONTARIO

43°40'00.000" N
79°24'00.000" W
112.50 m
6158355
71508
XTO

Download Data

Hourly Data (February 2017)
Hourly Data Report for February 28, 2017
TIME Temp Definition
°C
Dew Point Definition
°C
Rel Hum Definition
%
Wind Dir Definition
10's deg

Wind Spd Definition
km/h
Visibility Definition
km
Stn Press Definition
kPa
Hmdx Definition


Wind Chill Definition


Weather Definition


00:00 4.3 -1.7 65 LegendMM LegendMM   101.10     LegendNANA
01:00 4.0 -1.0 70 LegendMM LegendMM   101.11     LegendNANA
02:00 3.9 -0.7 72 LegendMM LegendMM   101.09     LegendNANA
03:00 3.9 -0.6 72 LegendMM LegendMM   101.09     LegendNANA
04:00 3.9 -0.5 73 LegendMM LegendMM   101.09     LegendNANA
05:00 3.5 -0.8 74 LegendMM LegendMM   101.02     LegendNANA
06:00 3.7 -0.9 72 LegendMM LegendMM   100.98     LegendNANA
07:00 3.3 0.1 79 LegendMM LegendMM   100.94     LegendNANA
08:00 3.5 0.6 81 LegendMM LegendMM   100.91     LegendNANA
09:00 4.7 0.9 76 LegendMM LegendMM   100.88     LegendNANA
10:00 6.0 1.4 73 LegendMM LegendMM   100.81     LegendNANA
11:00 6.4 1.6 71 LegendMM LegendMM   100.64     LegendNANA
12:00 6.4 1.6 72 LegendMM LegendMM   100.54     LegendNANA
13:00 6.4 1.9 73 LegendMM LegendMM   100.42     LegendNANA
14:00 6.9 2.2 72 LegendMM LegendMM   100.16     LegendNANA
15:00 6.4 2.4 75 LegendMM LegendMM   100.06     LegendNANA
16:00 7.0 2.7 74 LegendMM LegendMM   99.94     LegendNANA
17:00 7.3 2.8 73 LegendMM LegendMM   99.85     LegendNANA
18:00 7.5 2.9 73 LegendMM LegendMM   99.75     LegendNANA
19:00 8.2 3.0 70 LegendMM LegendMM   99.63     LegendNANA
20:00 9.0 4.0 71 LegendMM LegendMM   99.52     LegendNANA
21:00 8.7 5.4 80 LegendMM LegendMM   99.51     LegendNANA
22:00 9.9 6.3 78 LegendMM LegendMM   99.35     LegendNANA
23:00 9.9 6.4 79 LegendMM LegendMM   99.24     LegendNANA

Notes on Data Quality.

Legend

  • E = Estimated
  • M = Missing
  • NA = Not Available
Date modified: